This is the latest recevied weather packets stored in our database for station/object OH2MUI. If no packets are shown the sender has not sent any weather packets the latest 1 day(s).
| Time | Temp. | Humidity | Pressure | Rain* | Wind** | Luminosity | Snow |
|---|---|---|---|---|---|---|---|
| 1836274594 | 13.33° C | 100% | 1009.4 hPa | 0 mm | 0 m/s | - | - |
| 1778036771 | 0° C | 93% | 1011.9 hPa | 0 mm | 0 m/s | - | - |
| 1778035585 | -0.56° C | 91% | - | 0 mm | 0.45 m/s, 53° | - | - |
| 1778035579 | -0.56° C | 91% | 1011.8 hPa | 0 mm | 0.45 m/s, 53° | - | - |
| 1778034459 | -0.56° C | 90% | 1011.6 hPa | 0 mm | 0 m/s | - | - |
| 1778033459 | -0.56° C | 89% | 1011.5 hPa | 0 mm | 0 m/s | - | - |
| 1778032289 | 0° C | 88% | 1011.3 hPa | 0 mm | 0 m/s | - | - |
| 1778031319 | 0° C | 86% | 1011.1 hPa | 0 mm | 0 m/s | - | - |
| 1778030172 | 0.56° C | 85% | 1011.1 hPa | 0 mm | 0.45 m/s, 45° | - | - |
| 1778030164 | 0.56° C | 85% | 1011.1 hPa | 0 mm | 0.45 m/s, 45° | - | - |
| 1778029078 | 1.11° C | 82% | 1011 hPa | 0 mm | 0 m/s | - | - |
| 1778028032 | 1.67° C | 81% | 1010.8 hPa | 0 mm | 0 m/s | - | - |
| 1778026909 | 1.67° C | 80% | 1010.7 hPa | 0 mm | 0 m/s | - | - |
| 1778025809 | 1.67° C | 80% | 1010.6 hPa | 0 mm | 0 m/s | - | - |
| 1778024763 | 1.67° C | 79% | 1010.4 hPa | 0 mm | 0.45 m/s, 199° | - | - |
| 1778023644 | 2.22° C | 79% | 1010.4 hPa | 0 mm | 0.45 m/s, 227° | - | - |
| 1778022549 | 2.22° C | 78% | 1010.4 hPa | 0 mm | 0.45 m/s, 229° | - | - |
| 1778021494 | 2.78° C | 78% | 1010.3 hPa | 0 mm | 0.45 m/s, 225° | - | - |
| 1778020384 | 2.78° C | 76% | 1010.2 hPa | 0 mm | 0 m/s | - | - |
| 1778019194 | 2.78° C | 76% | 1010.1 hPa | 0 mm | 0.45 m/s, 222° | - | - |
| 1778018094 | 3.33° C | 75% | 1010 hPa | 0 mm | 0.89 m/s, 225° | - | - |
| 1778018089 | 3.33° C | 75% | 1010 hPa | 0 mm | 0.89 m/s, 225° | - | - |
| 1778017019 | 3.33° C | 74% | 1010 hPa | 0 mm | 0.89 m/s, 230° | - | - |
| 1778015845 | - | - | - | - | 1.34 m/s, 225° | - | - |
| 1778015839 | 3.89° C | 73% | 1009.9 hPa | 0 mm | 1.34 m/s, 225° | - | - |
* Rain latest hour (hover to see other rain measurements)
** Current wind speed in m/s (hover to see current wind gust speed)